Location: Unspecified
(43.4680°N, 87.1740°E)
Time: 02:43:21
(UTC+00:00)

ISS - Pass Details

Date: 05 October 2021
Orbit: 417 x 423 km, 51.6° (Epoch: 19 October)

Event Time Altitude Azimuth Distance (km) Brightness Sun altitude
Rises 12:07:01 0° 303° (WNW) 2,365 1.1 -4.7°
Reaches altitude 10° 12:09:08 10° 306° (NW) 1,499 -0.1 -5.1°
Maximum altitude 12:12:29 66° 30° (NNE) 460 -3.7 -5.7°
Drops below altitude 10° 12:15:49 10° 113° (ESE) 1,495 -1.5 -6.3°
Enters shadow 12:16:33 - 115° (ESE) 1,792 -1.1 -6.5°
